CW6617 Weather Reports


Display with metric or nautical units.
time (UTC)temp
F
wind
direction
speed
MPH
gust
MPH
rain 1hr
in
rain 24hr
in
rain mn
in
humidity
%
barometer
mb
20260508181204 63 131 1.0 3.0 0.00 0.00 0.00 61 1016.3
20260508180704 64 70 1.0 3.0 0.00 0.00 0.00 61 1016.4
20260508180204 64 153 1.0 3.0 0.00 0.00 0.00 62 1016.3
20260508174704 63 156 0.0 3.0 0.00 0.00 0.00 62 1016.2
20260508174203 63 156 1.0 6.0 0.00 0.00 0.00 64 1016.2
20260508173704 63 153 0.0 2.0 0.00 0.00 0.00 64 1016.2
20260508173204 63 153 0.0 3.0 0.00 0.00 0.00 62 1016.2
20260508171704 64 152 1.0 3.0 0.00 0.00 0.00 63 1016.2
20260508171204 64 144 1.0 3.0 0.00 0.00 0.00 63 1016.2
20260508170703 64 141 0.0 1.0 0.00 0.00 0.00 63 1016.1
20260508170204 64 141 0.0 5.0 0.00 0.00 0.00 62 1016.1
20260508164704 65 161 1.0 8.0 0.00 0.00 0.00 61 1016.0
20260508164204 65 137 3.0 9.0 0.00 0.00 0.00 59 1016.1
20260508163703 65 167 5.0 10.0 0.00 0.00 0.00 59 1016.1
20260508161703 65 165 2.0 9.0 0.00 0.00 0.00 59 1016.1
20260508161204 65 136 2.0 9.0 0.00 0.00 0.00 59 1016.2
20260508160704 65 146 2.0 6.0 0.00 0.00 0.00 59 1016.1
20260508160204 66 163 3.0 12.0 0.00 0.00 0.00 59 1016.1
20260508154704 66 163 8.0 10.0 0.00 0.00 0.00 56 1016.1
20260508153704 68 112 4.0 10.0 0.00 0.00 0.00 56 1016.1
20260508153204 68 173 4.0 10.0 0.00 0.00 0.00 58 1016.1
20260508151703 67 161 2.0 13.0 0.00 0.00 0.00 57 1016.3
20260508151204 66 172 1.0 6.0 0.00 0.00 0.00 61 1016.3
20260508150703 65 159 5.0 9.0 0.00 0.00 0.00 62 1016.3
20260508150204 64 121 3.0 10.0 0.00 0.00 0.00 61 1016.3
20260508144704 65 30 3.0 9.0 0.00 0.00 0.00 59 1016.3
20260508144204 66 149 2.0 7.0 0.00 0.00 0.00 59 1016.3
20260508143704 65 49 5.0 12.0 0.00 0.00 0.00 60 1016.2
20260508143204 65 94 9.0 14.0 0.00 0.00 0.00 60 1016.2
20260508141704 61 101 1.0 12.0 0.00 0.00 0.00 68 1016.3
20260508141203 61 65 4.0 8.0 0.00 0.00 0.00 67 1016.5
20260508140704 61 42 5.0 7.0 0.00 0.00 0.00 68 1016.5
20260508140204 61 59 3.0 8.0 0.00 0.00 0.00 69 1016.5
20260508133706 60 79 2.0 8.0 0.00 0.00 0.00 70 1016.5
20260508133204 60 103 2.0 10.0 0.00 0.00 0.00 69 1016.6
20260508131703 61 136 3.0 8.0 0.00 0.00 0.00 67 1016.6
20260508131204 61 122 1.0 9.0 0.00 0.00 0.00 67 1016.6
20260508130704 62 169 2.0 10.0 0.00 0.00 0.00 67 1016.5
20260508130204 62 176 3.0 10.0 0.00 0.00 0.00 67 1016.5
20260508124703 62 84 2.0 8.0 0.00 0.00 0.00 69 1016.5
20260508124204 61 137 1.0 5.0 0.00 0.00 0.00 70 1016.6
20260508123704 60 100 1.0 7.0 0.00 0.00 0.00 72 1016.5
20260508123205 60 77 4.0 9.0 0.00 0.00 0.00 72 1016.6
20260508121704 59 148 2.0 8.0 0.00 0.00 0.00 76 1016.6
20260508120703 58 138 1.0 5.0 0.00 0.00 0.00 78 1016.7
20260508120203 58 147 3.0 7.0 0.00 0.00 0.00 79 1016.7
20260508114703 58 115 2.0 9.0 0.00 0.00 0.00 79 1016.7
20260508114204 58 102 1.0 7.0 0.00 0.00 0.00 79 1016.8
20260508111703 58 123 0.0 1.0 0.00 0.00 0.00 76 1016.9
20260508111204 58 123 0.0 2.0 0.00 0.00 0.00 75 1017.0
20260508110704 58 123 0.0 3.0 0.00 0.00 0.00 73 1016.9
20260508110203 58 125 2.0 7.0 0.00 0.00 0.00 72 1016.9
20260508104704 58 115 0.0 2.0 0.00 0.00 0.00 72 1016.9
20260508104204 58 95 1.0 8.0 0.00 0.00 0.00 73 1016.9
20260508103704 58 111 2.0 6.0 0.00 0.00 0.00 75 1016.9
20260508103204 58 164 1.0 6.0 0.00 0.00 0.00 75 1016.9
20260508101704 58 168 1.0 2.0 0.00 0.00 0.00 74 1016.7
20260508101203 58 168 0.0 2.0 0.00 0.00 0.00 74 1016.6
20260508100704 58 168 0.0 6.0 0.00 0.00 0.00 73 1016.7
20260508100204 58 168 3.0 7.0 0.00 0.00 0.00 72 1016.7
20260508094204 58 130 2.0 7.0 0.00 0.00 0.00 70 1016.7
20260508093704 58 165 3.0 7.0 0.00 0.00 0.00 70 1016.7
20260508093203 58 165 4.0 12.0 0.00 0.00 0.00 71 1016.7
20260508091204 59 138 3.0 8.0 0.00 0.00 0.00 68 1016.6
20260508090703 59 112 4.0 9.0 0.00 0.00 0.00 68 1016.5
20260508090204 60 120 5.0 9.0 0.00 0.00 0.00 69 1016.6
20260508084704 59 172 3.0 7.0 0.00 0.00 0.00 73 1016.5
20260508083703 58 166 3.0 8.0 0.00 0.00 0.00 73 1016.5
20260508083204 58 107 2.0 10.0 0.00 0.00 0.00 74 1016.6
20260508081704 56 166 2.0 9.0 0.00 0.00 0.00 80 1016.5
20260508081204 55 92 2.0 8.0 0.00 0.00 0.00 80 1016.5
20260508080704 55 165 2.0 10.0 0.00 0.00 0.00 82 1016.5
20260508080203 54 156 3.0 12.0 0.00 0.00 0.00 82 1016.3
20260508074704 53 96 5.0 9.0 0.00 0.00 0.00 86 1016.4
20260508074204 52 163 1.0 6.0 0.00 0.00 0.00 88 1016.4
20260508073703 52 72 2.0 5.0 0.00 0.00 0.00 88 1016.4
20260508071704 50 94 2.0 10.0 0.00 0.00 0.00 89 1016.3
20260508071203 50 105 3.0 9.0 0.00 0.00 0.00 90 1016.2
20260508070704 50 117 3.0 7.0 0.00 0.00 0.00 89 1016.3
20260508070204 50 107 2.0 9.0 0.00 0.00 0.00 89 1016.3
20260508064704 49 87 2.0 8.0 0.00 0.00 0.00 89 1016.2
20260508064204 49 80 3.0 8.0 0.00 0.00 0.00 89 1016.2
20260508063705 49 61 2.0 8.0 0.00 0.00 0.00 90 1016.2
20260508063204 49 114 2.0 8.0 0.00 0.00 0.00 90 1016.2
20260508061203 48 95 1.0 7.0 0.00 0.00 0.00 90 1016.2
20260508060704 48 57 3.0 7.0 0.00 0.00 0.00 90 1016.2
20260508060204 48 89 2.0 7.0 0.00 0.00 0.00 90 1016.2
20260508054703 48 115 2.0 6.0 0.00 0.00 0.00 90 1016.1
20260508054204 48 71 3.0 7.0 0.00 0.00 0.00 90 1016.2
20260508053704 48 114 2.0 7.0 0.00 0.00 0.00 90 1016.2
20260508053203 48 115 2.0 7.0 0.00 0.00 0.00 90 1016.1
20260508051204 47 80 3.0 7.0 0.00 0.00 0.00 89 1016.0
20260508050703 47 110 2.0 5.0 0.00 0.00 0.00 89 1016.0
20260508050203 47 74 3.0 9.0 0.00 0.00 0.00 90 1016.0
20260508044703 47 97 2.0 6.0 0.00 0.00 0.00 89 1015.9
20260508044204 47 67 1.0 3.0 0.00 0.00 0.00 89 1015.9
20260508043703 47 63 1.0 5.0 0.00 0.00 0.00 89 1015.9
20260508041703 47 103 1.0 3.0 0.00 0.00 0.00 89 1015.8
20260508041204 47 61 1.0 5.0 0.00 0.00 0.00 89 1015.8
20260508040703 48 54 2.0 5.0 0.00 0.00 0.00 90 1015.7
20260508040203 48 94 2.0 8.0 0.00 0.00 0.00 90 1015.8
20260508034204 48 60 2.0 7.0 0.00 0.00 0.00 90 1015.7
20260508033703 47 70 2.0 7.0 0.00 0.00 0.00 90 1015.8
20260508033204 47 74 2.0 6.0 0.00 0.00 0.00 90 1015.8
20260508031204 47 72 2.0 5.0 0.00 0.00 0.00 91 1015.8
20260508030703 47 109 2.0 5.0 0.00 0.00 0.00 91 1015.9
20260508030204 47 104 1.0 5.0 0.00 0.00 0.00 91 1015.9
20260508024704 47 63 1.0 2.0 0.00 0.00 0.00 91 1016.0
20260508023704 47 68 1.0 2.0 0.00 0.00 0.00 91 1016.0
20260508023204 47 65 1.0 5.0 0.00 0.00 0.00 91 1016.0
20260508020704 47 89 1.0 3.0 0.00 0.00 0.00 91 1016.0
20260508020204 47 67 2.0 5.0 0.00 0.00 0.00 92 1016.0
20260508014704 46 87 1.0 3.0 0.00 0.00 0.00 91 1016.1
20260508014204 46 87 2.0 3.0 0.00 0.00 0.00 92 1016.1
20260508013703 46 88 1.0 2.0 0.00 0.00 0.00 92 1016.1
20260508013204 46 87 1.0 5.0 0.00 0.00 0.00 92 1016.1
20260508011704 46 96 1.0 5.0 0.00 0.00 0.00 91 1016.1
20260508011204 46 57 2.0 6.0 0.00 0.00 0.00 91 1016.1
20260508010704 46 103 1.0 2.0 0.00 0.00 0.00 91 1016.2
20260508004705 45 104 0.0 2.0 0.00 0.00 0.00 90 1016.3
20260508004203 46 104 0.0 1.0 0.00 0.00 0.00 90 1016.2
20260508003704 46 104 0.0 1.0 0.00 0.00 0.00 90 1016.3
20260508003204 46 104 0.0 1.0 0.00 0.00 0.00 90 1016.4
20260508000704 45 104 1.0 2.0 0.00 0.00 0.00 89 1016.4
20260508000205 45 103 0.0 3.0 0.00 0.00 0.00 89 1016.3
20260507234704 45 65 0.0 1.0 0.00 0.00 0.00 88 1016.5
20260507234204 45 65 0.0 0.0 0.00 0.00 0.00 87 1016.5
20260507233703 46 65 0.0 0.0 0.00 0.00 0.00 87 1016.5
20260507233204 46 65 0.0 1.0 0.00 0.00 0.00 87 1016.6
20260507231704 46 65 0.0 0.0 0.00 0.00 0.00 85 1016.6
20260507230704 47 65 0.0 0.0 0.00 0.00 0.00 85 1016.6
20260507230203 47 65 0.0 0.0 0.00 0.00 0.00 85 1016.7
20260507224704 47 65 0.0 0.0 0.00 0.00 0.00 84 1016.8
20260507224203 48 65 0.0 0.0 0.00 0.00 0.00 84 1016.8
20260507223704 48 65 0.0 0.0 0.00 0.00 0.00 84 1016.9
20260507223204 48 65 0.0 1.0 0.00 0.00 0.00 84 1016.8
20260507221704 48 62 2.0 5.0 0.00 0.00 0.00 84 1016.5
20260507221203 48 119 1.0 3.0 0.00 0.00 0.00 83 1016.4
20260507220704 48 148 1.0 3.0 0.00 0.00 0.00 83 1016.5
20260507220204 49 158 1.0 2.0 0.00 0.00 0.00 83 1016.6
20260507214704 49 158 0.0 0.0 0.00 0.00 0.00 82 1016.9
20260507213703 50 158 0.0 0.0 0.00 0.00 0.00 81 1016.9
20260507213204 50 158 0.0 0.0 0.00 0.00 0.00 81 1016.9
20260507211705 50 158 0.0 1.0 0.00 0.00 0.00 80 1016.8
20260507211204 51 158 1.0 2.0 0.00 0.00 0.00 80 1016.8
20260507210704 51 157 1.0 3.0 0.00 0.00 0.00 80 1016.7
20260507210204 51 157 1.0 2.0 0.00 0.00 0.00 79 1016.7
20260507204204 52 157 0.0 1.0 0.00 0.00 0.00 77 1016.4
20260507203703 52 157 0.0 0.0 0.00 0.00 0.00 77 1016.4
20260507203205 52 157 0.0 1.0 0.00 0.00 0.00 77 1016.4
20260507201203 53 157 0.0 0.0 0.00 0.00 0.00 75 1016.2
20260507200203 54 157 0.0 0.0 0.00 0.00 0.00 74 1016.1
20260507194703 54 157 0.0 1.0 0.00 0.00 0.00 73 1015.9
20260507193704 55 157 1.0 2.0 0.00 0.00 0.00 72 1015.8
20260507193203 55 157 0.0 3.0 0.00 0.00 0.00 72 1015.6
20260507191705 55 157 0.0 2.0 0.00 0.00 0.00 70 1015.5
20260507191204 55 159 2.0 6.0 0.00 0.00 0.00 70 1015.5
20260507190703 56 167 1.0 5.0 0.00 0.00 0.00 69 1015.4
20260507190204 56 168 3.0 8.0 0.00 0.00 0.00 70 1015.4
20260507184205 56 165 6.0 10.0 0.00 0.00 0.00 69 1015.5
20260507181703 58 173 4.0 13.0 0.00 0.00 0.00 68 1015.3